Location: Winthrop
(48.4780°N, 120.1850°W)
Time: 00:59:53
(UTC-07:00)

S-56A Canister/Altair - Pass Details

Date: 05 June 2023
Orbit: 640 x 2489 km, 38.9° (Epoch: 29 September)

Event Time Altitude Azimuth Distance (km) Brightness Sun altitude
Rises 01:43:11 0° 273° (W) 6,015 12.0 -18.3°
Reaches altitude 10° 01:47:11 10° 269° (W) 5,099 11.6 -18.2°
Maximum altitude 02:01:12 49° 201° (SSW) 2,938 10.0 -17.6°
Drops below altitude 10° 02:13:36 10° 133° (SE) 4,538 11.2 -17.1°
Sets 02:16:56 0° 128° (SE) 5,327 11.6 -16.9°
